Location: Most
(50.5133°N, 13.6207°E)
Time: 18:52:02
(UTC+02:00)

ISS - Pass Details

Date: 24 May 2019
Orbit: 407 x 410 km, 51.6° (Epoch: 23 May)

Event Time Altitude Azimuth Distance (km) Brightness Sun altitude
Rises 22:36:03 0° 272° (W) 2,334 0.6 -11.7°
Reaches altitude 10° 22:38:08 10° 274° (W) 1,473 -0.4 -11.9°
Maximum altitude 22:41:26 70° 359° (N) 439 -3.5 -12.2°
Drops below altitude 10° 22:44:44 10° 84° (E) 1,475 -1.3 -12.5°
Enters shadow 22:45:44 - 86° (E) 1,886 -0.7 -12.5°
